Regional Weather Roundup
Issued by NWS Goodland, KS

Home | Current Version | Previous Version | Text Only | Print | Product List | Glossary On
Versions: 1 2 3 4 5 6 7 8 9 10 11 12 13 14 15 16 17 18 19 20 21 22 23 24 25 26 27 28 29 30 31 32 33 34 35 36 37 38 39 40 41 42 43 44 45 46 47 48 49 50
000
ASUS43 KGLD 290808
RWRGLD

GOODLAND FORECAST AREA HOURLY WEATHER ROUNDUP
NATIONAL WEATHER SERVICE GOODLAND KS
200 AM MDT MON MAY 29 2017

...OFFICIAL OBSERVATIONS...

CITY           SKY/WX    TMP DP  RH WIND       PRES   REMARKS
GOODLAND KS    CLEAR     50  46  86 NW12      30.16R
HILL CITY KS   CLEAR     57  50  77 VRB6      30.08R
IMPERIAL NEB   CLEAR     52  45  77 W10       30.13S
MCCOOK NEB     CLEAR     51  46  83 W8        30.09R
AKRON CO       MOCLDY    49  42  77 NW9       30.22F
BURLINGTON CO  PTCLDY    51  46  83 W6        30.21R
LIMON CO       MOCLDY    49  44  83 N9        30.26R
$$

...UNOFFICIAL OBSERVATIONS...

CITY           SKY/WX    TMP DP  RH WIND       PRES   REMARKS
LENORA KS        N/A     55  32  41 MISG        N/A
NORTON KS      CLEAR     54  46  76 W8        30.07S
SHARON SPRINGS   N/A     52  45  77 NW9         N/A
TRENTON NEB      N/A     50  32  50 W5          N/A
KIT CARSON CO    N/A     54  44  69 MISG        N/A
YUMA CO        FAIR      46  34  61 W8        30.19F
$$




USA.gov is the U.S. government's official web portal to all federal, state and local government web resources and services.